Weather History for Nancy Ochey FAFB, France

Change the Weather History Date:

Friday, March 22, 2013

  Actual Average Record
Temperature  
Mean Temperature 42 °F -  
Max Temperature 52 °F 54 °F 68 °F (2012)
Min Temperature 32 °F 38 °F 26 °F (1998)
Degree Days  
Heating Degree Days 23    
Moisture  
Dew Point 32 °F    
Average Humidity 68    
Maximum Humidity 93    
Minimum Humidity 42    
Precipitation  
Precipitation 0.00 in - - ()
Sea Level Pressure  
Sea Level Pressure 29.83 in    
Wind  
Wind Speed 8 mph ()    
Max Wind Speed 18 mph    
Max Gust Speed 28 mph    
Visibility 5.7 miles    
Events      
Averages and records for this station are not official NWS values.
T = Trace of Precipitation, MM = Missing Value Source: Averaged Metar Reports

Daily Weather History Graph

Daily Weather History Graph

Search for Another Location

Airport:

Trip Planner

Search our weather history database for the weather conditions in past years. The results will help you decide how hot, cold, wet, or windy it might be!

Date:

Astronomy

Mar. 22, 2013 Rise Set
Actual Time 6:34 AM CET 6:52 PM CET
Civil Twilight 6:03 AM CET 7:23 PM CET
Nautical Twilight 5:26 AM CET 8:00 PM CET
Astronomical Twilight 4:48 AM CET 8:39 PM CET
Moon 1:43 PM CET (3/22) 3:47 AM CET (3/22)
Length of Visible Light 13h 19m
Length of Day
12h 17m
Waxing Gibbous, 75% of the Moon is Illuminated
Mar 22
Waxing Gibbous
Mar 27
Full
Apr 3
Last Quarter
Apr 10
New
Apr 18
First Quarter

Hourly Weather History & Observations

Time (CET) Temp. Windchill Dew Point Humidity Pressure Visibility Wind Dir Wind Speed Gust Speed Precip Events Conditions
12:00 AM 41.0 °F 37.1 °F 32.0 °F 70% 29.98 in 6.2 mi East 5.8 mph - N/A   Unknown
12:30 AM 41.0 °F 36.4 °F 32.0 °F 70% 29.98 in 6.2 mi ENE 6.9 mph - N/A   Unknown
1:00 AM 40 °F - 31 °F 61% 30.01 in 8 mi ENE 6.9 mph - -   Clear
1:00 AM 41.0 °F 36.4 °F 32.0 °F 70% 29.95 in 6.2 mi ENE 6.9 mph - N/A   Unknown
1:30 AM 39.2 °F 35.0 °F 32.0 °F 75% 29.95 in 6.2 mi ENE 5.8 mph - N/A   Unknown
2:00 AM 39.2 °F 35.9 °F 32.0 °F 75% 29.95 in 5.6 mi East 4.6 mph - N/A   Unknown
2:30 AM 37.4 °F 34.9 °F 32.0 °F 81% 29.95 in 5.0 mi East 3.5 mph - N/A   Unknown
3:00 AM 35.6 °F 30.7 °F 30.2 °F 81% 29.95 in 3.7 mi East 5.8 mph - N/A   Unknown
3:30 AM 33.8 °F 28.6 °F 30.2 °F 87% 29.95 in 3.1 mi East 5.8 mph - N/A   Mist
4:00 AM 33.8 °F 28.6 °F 30.2 °F 87% 29.92 in 3.1 mi East 5.8 mph - N/A   Mist
4:30 AM 32.0 °F 27.5 °F 30.2 °F 93% 29.92 in - ENE 4.6 mph - N/A   Mist
5:00 AM 32.0 °F 27.5 °F 30.2 °F 93% 29.92 in 2.8 mi East 4.6 mph - N/A   Mist
5:30 AM 32.0 °F 28.7 °F 30.2 °F 93% 29.92 in - ENE 3.5 mph - N/A   Mist
6:00 AM 32.0 °F 26.4 °F 30.2 °F 93% 29.92 in - East 5.8 mph - N/A   Mist
6:30 AM 32.0 °F 27.5 °F 30.2 °F 93% 29.92 in - East 4.6 mph - N/A   Mist
7:00 AM 32.0 °F 26.4 °F 30.2 °F 93% 29.89 in - East 5.8 mph - N/A   Mist
7:30 AM 32.0 °F 28.7 °F 30.2 °F 93% 29.89 in 2.2 mi ENE 3.5 mph - N/A   Mist
8:00 AM 33.8 °F 28.6 °F 30.2 °F 87% 29.89 in - ENE 5.8 mph - N/A   Mist
8:30 AM 33.8 °F 27.0 °F 30.2 °F 87% 29.89 in - East 8.1 mph - N/A   Mist
9:00 AM 37.4 °F 32.1 °F 30.2 °F 75% 29.86 in 3.1 mi East 6.9 mph - N/A   Mist
9:30 AM 39.2 °F 35.0 °F 32.0 °F 75% 29.86 in 3.7 mi East 5.8 mph - N/A   Unknown
10:00 AM 39.2 °F 35.0 °F 32.0 °F 75% 29.86 in 3.7 mi East 5.8 mph - N/A   Unknown
10:30 AM 41.0 °F 35.8 °F 32.0 °F 70% 29.86 in 5.0 mi East 8.1 mph - N/A   Unknown
11:00 AM 44.6 °F 40.2 °F 33.8 °F 66% 29.86 in 5.6 mi ENE 8.1 mph - N/A   Unknown
11:30 AM 46.4 °F 41.5 °F 33.8 °F 62% 29.83 in 6.2 mi East 10.4 mph - N/A   Unknown
12:00 PM 46.4 °F 40.7 °F 32.0 °F 57% 29.83 in 6.2 mi East 12.7 mph - N/A   Unknown
12:30 PM 48.2 °F - 33.8 °F 58% 29.80 in 6.2 mi East 13.8 mph - N/A   Unknown
1:00 PM 50 °F - 34 °F 42% 29.83 in 9 mi East 10.4 mph - -   Clear
1:00 PM 50.0 °F - 33.8 °F 54% 29.80 in 6.2 mi East 10.4 mph - N/A   Unknown
1:30 PM 50.0 °F - 33.8 °F 54% 29.80 in 6.2 mi East 11.5 mph - N/A   Unknown
2:00 PM 51.8 °F - 33.8 °F 50% 29.77 in 6.2 mi East 12.7 mph - N/A   Unknown
2:30 PM 51.8 °F - 33.8 °F 50% 29.77 in 6.2 mi ENE 12.7 mph - N/A   Unknown
3:00 PM 51.8 °F - 33.8 °F 50% 29.77 in 6.2 mi East 12.7 mph - N/A   Unknown
3:30 PM 51.8 °F - 33.8 °F 50% 29.74 in 6.2 mi ENE 13.8 mph - N/A   Unknown
4:00 PM 50.0 °F - 33.8 °F 54% 29.74 in 6.2 mi ENE 13.8 mph - N/A   Unknown
4:30 PM 50.0 °F - 33.8 °F 54% 29.74 in 6.2 mi ENE 15.0 mph - N/A   Unknown
5:00 PM 48.2 °F - 33.8 °F 58% 29.74 in 6.2 mi ENE 16.1 mph - N/A   Unknown
5:30 PM 48.2 °F - 33.8 °F 58% 29.71 in 6.2 mi ENE 16.1 mph - N/A   Unknown
6:00 PM 48.2 °F - 33.8 °F 58% 29.71 in 6.2 mi ENE 16.1 mph 27.6 mph N/A   Unknown
6:30 PM 46.4 °F 39.8 °F 33.8 °F 62% 29.71 in 6.2 mi ENE 16.1 mph - N/A   Unknown
7:00 PM 46 °F - 33 °F 48% 29.76 in 9 mi East 16.1 mph - -   Clear
7:00 PM 46.4 °F 39.8 °F 32.0 °F 57% 29.74 in 6.2 mi East 16.1 mph - N/A   Unknown
7:30 PM 44.6 °F 37.8 °F 32.0 °F 61% 29.74 in 6.2 mi East 15.0 mph 27.6 mph N/A   Unknown
8:00 PM 44.6 °F 37.8 °F 32.0 °F 61% 29.74 in 6.2 mi East 15.0 mph - N/A   Unknown
8:30 PM 44.6 °F 37.2 °F 32.0 °F 61% 29.74 in 6.2 mi East 17.3 mph - N/A   Unknown
9:00 PM 42.8 °F 34.5 °F 32.0 °F 66% 29.71 in 6.2 mi East 18.4 mph - N/A   Unknown
9:30 PM 42.8 °F 35.1 °F 30.2 °F 61% 29.71 in 6.2 mi East 16.1 mph - N/A   Unknown
10:00 PM 42.8 °F 35.1 °F 30.2 °F 61% 29.71 in 6.2 mi East 16.1 mph - N/A   Unknown
10:30 PM 41.0 °F 33.1 °F 30.2 °F 65% 29.71 in 6.2 mi ENE 15.0 mph - N/A   Unknown
11:00 PM 41.0 °F 33.9 °F 30.2 °F 65% 29.71 in 6.2 mi ENE 12.7 mph - N/A   Unknown
11:30 PM 41.0 °F 34.3 °F 30.2 °F 65% 29.71 in 6.2 mi ENE 11.5 mph - N/A   Unknown